Weather in Myaksa

Russia / Vologda Oblast     58°53′16″N   38°11′53″E
temp.,
°C
wind,
m/s
gust,
m/s
humid.,
%
clouds,
%
prec.,
mm/h
press.,
hPa
HPBL,
m
10 may, mon
mon1000:00+2nnw23710 0.0 102153
03:00+1nnw22775 0.0 102339
06:00+3nnw137220 0.0 102596
09:00+9nnw12500 0.0 1026575
12:00+13w113728 0.0 10271325
15:00+13ssw22359 0.0 10271263
18:00+12s33496 0.0 1027329
21:00+7s23545 0.0 102855
11 may, tue
tue1100:00+6s22578 0.0 102929
03:00+5s23629 0.0 103049
06:00+7s246661 0.0 103094
09:00+11s345269 0.0 1031312
12:00+15s334359 0.0 1030623
15:00+17ssw224591 0.0 1029770
18:00+16sw12575 0.0 1029229
21:00+11sse22740 0.0 102912
12 may, wed
wed1200:00+9sse22780 0.0 102936
03:00+8ese11835 0.0 103010
06:00+10se12755 0.0 103051
09:00+17ese12550 0.0 1029448
12:00+21se23480 0.0 1027967
15:00+22ese23460 0.0 10261362
18:00+21ese365954 0.0 1024805
21:00+15e398262 0.0 1024162
13 may, thu
thu1300:00+14ese3108988 0.1 1024192
03:00+13se27968 0.1 1024137
06:00+14se26915 0.0 1024215
09:00+17se367399 0.0 1023611
12:00+21se595389 0.0 10211509
15:00+22se5105115 0.0 10201607
18:00+19se5965100 0.6 10181045
21:00+13ssw129698 1.5 101973
14 may, fri
fri1400:00+13ene1296100 1.2 101851
03:00+13w1199100 3.1 101743
06:00+13w2399100 2.8 1016143
09:00+13sw2496100 3.8 1017278
12:00+17ssw367498 0.1 1017759
15:00+19s46550 0.1 1017857
18:00+18sse3562100 0.0 1016396
21:00+13sse258230 0.0 101680